Berea, KY

5:24 PM EDT on August 28, 2016 (GMT -0400)
Richmond

Weather History for KI39 - March, 2014

Change the Weather History Date:

Thursday, March 13, 2014

  Actual Average (KLOZ) Record (KLOZ)
Temperature  
Mean Temperature 29 °F 46 °F  
Max Temperature 39 °F 58 °F 84 °F (1967)
Min Temperature 19 °F 35 °F -3 °F (1960)
Degree Days  
Heating Degree Days 36 19  
Month to date heating degree days 263  
Since 1 July heating degree days 3539  
Cooling Degree Days 0 0  
Month to date cooling degree days 0  
Year to date cooling degree days 0  
Moisture  
Dew Point 12 °F    
Average Humidity 52    
Maximum Humidity 80    
Minimum Humidity 28    
Precipitation  
Precipitation 0.00 in 0.13 in 1.18 in (1975)
Month to date precipitation 1.70  
Sea Level Pressure  
Sea Level Pressure 30.14 in    
Wind  
Wind Speed 8 mph (West)    
Max Wind Speed 15 mph    
Max Gust Speed 23 mph    
Visibility 10 miles    
Events      
T = Trace of Precipitation, MM = Missing Value Source: NWS Daily Summary

Daily Weather History Graph

Daily Weather History Graph

Search for Another Location

Airport or City:

Trip Planner

Search our weather history database for the weather conditions in past years. The results will help you decide how hot, cold, wet, or windy it might be!

Date:

Astronomy

Mar. 13, 2014 Rise Set
Actual Time 7:51 AM EDT 7:42 PM EDT
Civil Twilight 7:25 AM EDT 8:08 PM EDT
Nautical Twilight 6:54 AM EDT 8:39 PM EDT
Astronomical Twilight 6:24 AM EDT 9:09 PM EDT
Moon 5:10 PM EDT (3/13) 5:55 AM EDT (3/13)
Length of Visible Light 12h 43m
Length of Day
11h 51m
Waxing Gibbous, 91% of the Moon is Illuminated
Mar 13
Waxing Gibbous
Mar 16
Full
Mar 23
Last Quarter
Mar 30
New
Apr 7
First Quarter

Hourly Weather History & Observations

Time (EDT) Temp. Windchill Dew Point Humidity Pressure Visibility Wind Dir Wind Speed Gust Speed Precip Events Conditions
12:15 AM 30.2 °F 22.6 °F 21.2 °F 69% 29.98 in 10.0 mi NW 8.1 mph - N/A   Scattered Clouds
12:35 AM 30.2 °F 23.4 °F 21.2 °F 69% 29.98 in 10.0 mi NW 6.9 mph - N/A   Mostly Cloudy
12:55 AM 28.4 °F 19.1 °F 21.2 °F 74% 29.99 in 10.0 mi WNW 10.4 mph - N/A   Mostly Cloudy
1:15 AM 30.2 °F 21.3 °F 21.2 °F 69% 29.99 in 10.0 mi NW 10.4 mph - N/A   Scattered Clouds
1:35 AM 28.4 °F 17.0 °F 19.4 °F 69% 29.98 in 10.0 mi WNW 15.0 mph - N/A   Clear
1:55 AM 28.4 °F 19.7 °F 19.4 °F 69% 29.99 in 10.0 mi NW 9.2 mph - N/A   Mostly Cloudy
2:15 AM 28.4 °F 18.0 °F 19.4 °F 69% 30.00 in 10.0 mi WNW 12.7 mph 17.3 mph N/A   Overcast
2:35 AM 28.4 °F 17.0 °F 19.4 °F 69% 30.00 in 10.0 mi NW 15.0 mph - N/A   Overcast
2:55 AM 28.4 °F 17.0 °F 17.6 °F 64% 30.01 in 10.0 mi NNW 15.0 mph 23.0 mph N/A   Overcast
3:15 AM 26.6 °F 15.2 °F 17.6 °F 69% 30.02 in 10.0 mi NNW 13.8 mph - N/A   Overcast
3:35 AM 24.8 °F 14.6 °F 15.8 °F 69% 30.02 in 10.0 mi NW 10.4 mph - N/A   Scattered Clouds
3:55 AM 24.8 °F 14.0 °F 15.8 °F 69% 30.01 in 10.0 mi NW 11.5 mph - N/A   Clear
4:15 AM 24.8 °F 15.3 °F 15.8 °F 69% 30.02 in 10.0 mi NW 9.2 mph - N/A   Clear
4:35 AM 24.8 °F 14.0 °F 15.8 °F 69% 30.02 in 10.0 mi NW 11.5 mph 16.1 mph N/A   Clear
4:55 AM 23.0 °F 12.4 °F 15.8 °F 74% 30.02 in 10.0 mi NW 10.4 mph - N/A   Clear
5:15 AM 23.0 °F 11.7 °F 15.8 °F 74% 30.03 in 10.0 mi NW 11.5 mph - N/A   Clear
5:35 AM 23.0 °F 13.9 °F 15.8 °F 74% 30.04 in 10.0 mi NW 8.1 mph - N/A   Clear
5:55 AM 23.0 °F 13.1 °F 15.8 °F 74% 30.05 in 10.0 mi NW 9.2 mph - N/A   Clear
6:15 AM 23.0 °F 13.9 °F 14.0 °F 68% 30.06 in 10.0 mi NW 8.1 mph - N/A   Clear
6:35 AM 21.2 °F 12.6 °F 14.0 °F 74% 30.08 in 10.0 mi NW 6.9 mph - N/A   Clear
6:55 AM 21.2 °F 11.7 °F 14.0 °F 74% 30.09 in 10.0 mi NW 8.1 mph - N/A   Clear
7:15 AM 21.2 °F 14.9 °F 14.0 °F 74% 30.10 in 10.0 mi NNW 4.6 mph - N/A   Clear
7:35 AM 21.2 °F 11.7 °F 14.0 °F 74% 30.11 in 10.0 mi NW 8.1 mph - N/A   Clear
7:55 AM 19.4 °F 9.5 °F 14.0 °F 80% 30.12 in 10.0 mi NNW 8.1 mph - N/A   Clear
8:15 AM 19.4 °F 14.3 °F 12.2 °F 74% 30.13 in 10.0 mi NW 3.5 mph - N/A   Clear
8:35 AM 19.4 °F 14.3 °F 12.2 °F 74% 30.14 in 10.0 mi NNW 3.5 mph - N/A   Clear
8:55 AM 21.2 °F 12.6 °F 12.2 °F 68% 30.15 in 10.0 mi NNW 6.9 mph - N/A   Clear
9:15 AM 21.2 °F 12.6 °F 10.4 °F 63% 30.17 in 10.0 mi NNW 6.9 mph - N/A   Clear
9:35 AM 21.2 °F 12.6 °F 12.2 °F 68% 30.19 in 10.0 mi NNW 6.9 mph - N/A   Clear
9:55 AM 21.2 °F 13.6 °F 10.4 °F 63% 30.20 in 10.0 mi NW 5.8 mph - N/A   Clear
10:15 AM 23.0 °F 14.7 °F 12.2 °F 63% 30.21 in 10.0 mi WNW 6.9 mph - N/A   Clear
10:35 AM 23.0 °F 18.4 °F 10.4 °F 59% 30.22 in 10.0 mi WNW 3.5 mph - N/A   Clear
10:55 AM 23.0 °F 14.7 °F 12.2 °F 63% 30.22 in 10.0 mi NNW 6.9 mph - N/A   Clear
11:15 AM 24.8 °F 19.1 °F 12.2 °F 59% 30.23 in 10.0 mi West 4.6 mph - N/A   Clear
11:35 AM 24.8 °F 20.5 °F 8.6 °F 50% 30.23 in 10.0 mi NW 3.5 mph - N/A   Clear
11:55 AM 26.6 °F 22.6 °F 8.6 °F 47% 30.23 in 10.0 mi West 3.5 mph - N/A   Clear
12:15 PM 26.6 °F 21.2 °F 6.8 °F 43% 30.23 in 10.0 mi West 4.6 mph - N/A   Clear
12:35 PM 28.4 °F 22.2 °F 5.0 °F 37% 30.24 in 10.0 mi NW 5.8 mph - N/A   Clear
12:55 PM 28.4 °F 19.7 °F 6.8 °F 40% 30.23 in 10.0 mi West 9.2 mph - N/A   Clear
1:15 PM 30.2 °F 22.6 °F 6.8 °F 37% 30.23 in 10.0 mi West 8.1 mph - N/A   Clear
1:35 PM 30.2 °F 26.7 °F 6.8 °F 37% 30.23 in 10.0 mi WNW 3.5 mph - N/A   Clear
1:55 PM 32.0 °F 25.6 °F 10.4 °F 41% 30.22 in 10.0 mi SSW 6.9 mph - N/A   Clear
2:15 PM 32.0 °F 27.5 °F 8.6 °F 38% 30.22 in 10.0 mi WSW 4.6 mph - N/A   Clear
2:35 PM 32.0 °F 25.6 °F 6.8 °F 35% 30.20 in 10.0 mi WSW 6.9 mph - N/A   Clear
2:55 PM 33.8 °F 27.0 °F 6.8 °F 32% 30.20 in 10.0 mi West 8.1 mph - N/A   Clear
3:15 PM 33.8 °F 27.0 °F 5.0 °F 30% 30.20 in 10.0 mi WNW 8.1 mph - N/A   Clear
3:35 PM 35.6 °F 29.9 °F 5.0 °F 28% 30.19 in 10.0 mi WNW 6.9 mph - N/A   Clear
3:55 PM 35.6 °F 28.6 °F 6.8 °F 30% 30.19 in 10.0 mi WSW 9.2 mph - N/A   Clear
4:15 PM 35.6 °F 31.7 °F 6.8 °F 30% 30.19 in 10.0 mi West 4.6 mph - N/A   Clear
4:35 PM 37.4 °F 32.1 °F 8.6 °F 30% 30.19 in 10.0 mi WNW 6.9 mph - N/A   Clear
4:55 PM 37.4 °F 32.8 °F 8.6 °F 30% 30.19 in 10.0 mi SW 5.8 mph - N/A   Clear
5:15 PM 37.4 °F 32.1 °F 8.6 °F 30% 30.18 in 10.0 mi SW 6.9 mph - N/A   Clear
5:35 PM 37.4 °F 32.1 °F 8.6 °F 30% 30.18 in 10.0 mi West 6.9 mph - N/A   Clear
5:55 PM 37.4 °F 32.1 °F 8.6 °F 30% 30.18 in 10.0 mi WSW 6.9 mph - N/A   Clear
6:15 PM 39.2 °F 34.2 °F 10.4 °F 31% 30.18 in 10.0 mi West 6.9 mph - N/A   Clear
6:35 PM 37.4 °F 32.8 °F 10.4 °F 33% 30.18 in 10.0 mi West 5.8 mph - N/A   Clear
6:55 PM 37.4 °F 31.4 °F 10.4 °F 33% 30.18 in 10.0 mi West 8.1 mph - N/A   Clear
7:15 PM 37.4 °F 32.1 °F 8.6 °F 30% 30.18 in 10.0 mi WSW 6.9 mph - N/A   Clear
7:35 PM 37.4 °F 34.9 °F 8.6 °F 30% 30.18 in 10.0 mi SW 3.5 mph - N/A   Clear
7:55 PM 35.6 °F 32.8 °F 10.4 °F 35% 30.17 in 10.0 mi SW 3.5 mph - N/A   Clear
8:15 PM 35.6 °F 30.7 °F 10.4 °F 35% 30.17 in 10.0 mi South 5.8 mph - N/A   Clear
8:35 PM 35.6 °F 30.7 °F 10.4 °F 35% 30.17 in 10.0 mi South 5.8 mph - N/A   Clear
8:55 PM 35.6 °F 31.7 °F 10.4 °F 35% 30.17 in 10.0 mi South 4.6 mph - N/A   Clear
9:15 PM 35.6 °F 32.8 °F 10.4 °F 35% 30.17 in 10.0 mi South 3.5 mph - N/A   Clear
9:35 PM 33.8 °F 29.6 °F 10.4 °F 38% 30.17 in 10.0 mi South 4.6 mph - N/A   Clear
9:55 PM 33.8 °F 29.6 °F 12.2 °F 41% 30.16 in 10.0 mi South 4.6 mph - N/A   Clear
10:15 PM 33.8 °F 29.6 °F 14.0 °F 44% 30.16 in 10.0 mi South 4.6 mph - N/A   Clear
10:35 PM 33.8 °F 28.6 °F 14.0 °F 44% 30.16 in 10.0 mi South 5.8 mph - N/A   Clear
10:55 PM 33.8 °F 29.6 °F 14.0 °F 44% 30.16 in 10.0 mi SSW 4.6 mph - N/A   Clear
11:15 PM 33.8 °F 27.0 °F 15.8 °F 48% 30.16 in 10.0 mi South 8.1 mph - N/A   Clear
11:35 PM 33.8 °F 27.7 °F 15.8 °F 48% 30.16 in 10.0 mi South 6.9 mph - N/A   Clear
11:55 PM 33.8 °F 26.4 °F 14.0 °F 44% 30.15 in 10.0 mi SSW 9.2 mph - N/A   Clear